Tracking 23099 objects as of 13-May-2021
HD Live streaming from Space Station
objects crossing your sky now

SL-19 DEB

Track SL-19 DEB now!
10-day predictions


NORAD ID: 23482
Int'l Code: 1994-085E
Perigee: 1,607.0 km
Apogee: 2,419.4 km
Inclination: 64.7 °
Period: 127.3 minutes
Semi major axis: 8384 km
RCS: 0.2163 m2 (medium)
Launch date: December 26, 1994
Source: Commonwealth of Independent States (former USSR) (CIS)
Launch site: TYURATAM MISSILE AND SPACE COMPLEX (TTMTR)

Note: This is SATELLITE DEBRIS
aabbcc
Your satellite tracking list
Your tracking list is empty




NASA's NSSDC Master Catalog

Two Line Element Set (TLE):
1 23482U 94085E   21132.51780609 -.00004156  00000-0 -88978-1 0  9999
2 23482  64.7024  49.8089 0484455 138.1847  31.6773 11.30864512 85960
Source of the keplerian elements: AFSPC